GFSMW_925_temp_204.txt.gz
Temp
16 15 15 15 15 16 17 17 17 17 17 17 17 17 17 17 17 16 17 17 16 16 16 15 15 15 15 16 15 15 13 12 11 10 9 9 9 10 10 11 11 11 11
14 15 15 16 17 17 17 17 17 17 18 18 18 18 18 18 18 18 17 17 16 16 16 16 16 15 14 14 13 13 13 12 11 11 9 9 8 8 9 10 10 10 11
14 13 13 15 16 17 18 18 18 18 18 18 18 17 17 16 16 16 16 16 15 15 15 15 15 14 14 14 13 13 12 12 11 10 11 8 10 8 8 8 8 9 9
13 13 12 13 15 16 17 17 17 17 16 16 17 16 15 15 14 14 13 14 14 13 13 13 13 13 14 13 13 13 12 11 12 9 9 10 9 9 7 7 7 7 8
13 12 11 13 15 16 16 16 16 16 16 16 15 14 13 12 12 12 13 13 13 13 13 13 12 12 12 13 13 13 12 11 10 11 10 9 9 8 7 8 7 6 7
12 11 12 13 13 14 15 15 16 15 14 14 13 13 13 12 12 11 11 11 11 12 13 13 12 11 10 11 12 12 12 11 10 10 10 10 10 8 8 7 8 8 7
11 10 10 10 12 14 15 15 14 13 13 13 13 13 12 12 11 10 10 10 10 10 10 10 9 9 9 8 9 10 11 10 10 9 9 10 10 10 9 10 8 8 5
10 10 9 11 12 13 13 14 14 13 13 13 13 12 12 11 10 10 9 9 8 8 8 8 8 8 8 8 8 8 9 9 9 9 9 9 9 10 9 9 9 7 5
10 9 9 11 12 12 13 13 13 12 12 12 12 12 11 10 9 9 9 8 8 7 6 6 5 6 6 7 8 7 7 7 7 7 8 8 8 9 9 8 9 9 6
9 9 8 10 11 12 12 12 12 12 12 12 11 10 10 9 9 8 7 7 6 5 5 4 4 5 6 6 6 6 6 6 6 7 7 7 8 8 9 9 8 8 9
10 9 8 10 11 11 12 12 12 12 12 11 10 9 9 8 7 6 6 5 4 4 4 4 4 4 5 5 5 5 5 5 6 6 7 7 7 8 9 9 8 8 8
10 8 7 9 9 11 11 12 12 11 10 9 8 8 7 6 6 5 4 3 2 2 3 4 4 4 4 4 4 4 4 4 5 5 5 6 6 7 8 8 7 8 8
9 7 7 7 9 10 11 11 11 10 9 8 7 7 6 4 3 2 1 1 1 2 2 3 3 3 3 3 3 3 3 3 3 3 3 4 4 5 6 7 8 7 7
9 8 7 6 9 10 11 11 10 9 7 7 6 5 4 3 1 1 1 1 1 1 1 1 2 2 2 2 2 1 1 2 2 2 2 3 3 4 5 7 7 7 7
9 8 7 6 8 9 10 9 8 7 6 6 5 3 2 1 1 0 -0 -0 -0 -0 0 0 0 0 -0 0 0 0 0 0 0 1 1 2 3 3 4 5 8 7 6
9 9 8 7 8 9 9 8 7 7 5 5 3 2 1 -0 -0 -1 -1 -1 -1 -0 -0 -0 -1 -1 -1 -1 -1 -1 -1 -0 1 1 2 3 3 4 4 4 6 7 5
9 9 9 8 9 9 9 7 6 5 5 3 1 1 -0 -1 -1 -1 -2 -1 -1 -1 -1 -2 -2 -2 -2 -2 -1 -1 -1 -0 1 1 2 3 4 5 5 4 5 7 6
10 9 8 9 9 8 7 6 5 4 2 1 0 -0 -1 -1 -1 -2 -2 -2 -1 -2 -2 -2 -2 -2 -2 -2 -2 -1 -0 0 1 1 2 3 5 6 5 5 5 4 3
9 8 10 9 8 7 6 5 4 2 1 0 -1 -1 -1 -2 -2 -2 -2 -2 -2 -2 -2 -2 -2 -2 -2 -2 -2 -1 -1 -0 0 1 1 3 4 4 5 3 2 1 0
9 8 8 8 7 5 5 3 1 -0 -0 -1 -1 -1 -2 -2 -2 -2 -3 -2 -2 -2 -2 -3 -2 -3 -2 -2 -2 -1 -1 -1 -1 -0 1 2 2 2 1 0 0 -0 -0
8 9 8 6 6 4 3 1 -0 -1 -1 -2 -2 -2 -2 -2 -2 -3 -2 -3 -2 -2 -2 -2 -2 -3 -3 -2 -2 -2 -1 -1 -1 -1 -1 -0 1 1 1 1 0 -0 -0
6 7 5 4 3 2 0 -0 -1 -1 -2 -2 -2 -2 -2 -3 -3 -2 -2 -2 -2 -2 -2 -2 -2 -2 -2 -3 -3 -2 -2 -2 -2 -2 -1 0 1 0 0 -0 -0 -0 -0
5 6 4 1 1 0 -1 -1 -1 -1 -2 -2 -2 -2 -2 -3 -2 -2 -3 -2 -2 -2 -2 -2 -3 -3 -2 -2 -3 -3 -2 -2 -3 -3 -3 -2 -0 -0 -0 -0 0 0 -1
4 4 1 -0 -1 -1 -1 -1 -0 -1 -2 -2 -2 -2 -3 -2 -2 -2 -2 -2 -2 -2 -2 -3 -3 -3 -3 -3 -3 -3 -3 -2 -2 -2 -4 -4 -3 -3 -2 -1 -1 -1 -2
4 4 2 1 0 0 -0 -0 -1 -2 -2 -2 -2 -2 -2 -2 -2 -2 -2 -2 -2 -2 -2 -3 -3 -3 -3 -4 -3 -3 -3 -3 -3 -2 -2 -3 -4 -4 -4 -4 -3 -3 -3
4 3 2 1 0 -0 -0 -1 -1 -2 -2 -2 -2 -2 -2 -2 -2 -2 -2 -2 -2 -2 -2 -2 -2 -3 -3 -3 -3 -3 -3 -3 -3 -4 -5 -5 -5 -5 -5 -5 -5 -4 -4

GFSMW_925_temp_207.txt.gz
Temp
18 16 15 16 16 16 16 16 17 17 17 17 17 17 17 16 16 16 16 16 16 16 15 15 15 15 14 14 13 14 13 13 13 11 10 10 10 10 10 12 11 12 11
19 17 15 15 16 16 16 16 17 17 17 17 17 17 16 16 17 17 16 16 16 16 15 15 14 14 13 14 13 13 12 12 12 11 9 10 9 8 9 10 10 10 11
19 17 16 15 15 15 15 16 16 16 17 17 17 17 17 16 16 16 16 16 15 15 14 14 13 13 12 12 12 13 13 13 12 12 11 10 10 9 9 8 9 9 10
18 17 17 15 15 14 15 15 15 16 16 17 17 17 16 15 13 14 14 14 14 14 14 14 14 13 13 11 11 12 12 12 12 11 10 11 11 11 9 8 8 9 9
18 17 16 16 14 14 14 15 15 16 16 16 16 16 14 14 13 13 13 14 14 13 14 13 13 13 13 12 10 10 11 11 12 12 12 10 10 9 9 11 8 8 9
17 17 16 14 13 13 13 14 14 14 15 15 15 14 14 13 12 12 12 12 12 12 12 12 11 11 9 9 9 9 9 10 11 11 11 11 11 11 9 9 10 9 8
17 16 15 15 13 13 12 13 13 12 14 14 14 13 13 12 11 10 10 9 9 9 9 10 10 9 8 7 7 7 8 9 9 10 10 10 11 11 11 9 10 10 9
17 16 15 14 13 12 12 12 12 11 12 13 13 12 12 11 10 10 9 8 8 8 7 7 6 6 6 6 6 7 7 8 8 9 10 9 10 10 10 10 10 10 10
16 15 14 14 13 12 12 12 12 11 12 13 12 11 11 10 10 10 8 7 7 6 6 5 5 5 4 5 5 6 7 7 7 7 8 8 9 9 9 9 10 10 9
15 15 14 13 13 12 12 12 12 12 12 12 11 11 11 10 9 8 6 6 5 5 4 4 4 4 5 5 5 5 5 5 5 6 6 7 7 8 8 8 9 9 9
15 14 14 13 12 11 10 11 11 11 11 11 11 10 9 8 7 6 5 4 4 3 3 2 2 3 4 5 5 5 5 4 4 5 5 5 6 7 7 7 8 8 9
15 14 13 11 10 10 10 10 10 11 11 10 10 9 8 7 5 4 3 2 2 2 2 2 2 2 2 2 3 3 3 3 4 4 4 4 5 5 5 6 7 8 8
14 14 12 11 10 10 10 10 10 10 10 9 9 8 7 4 3 3 2 2 2 2 1 1 1 1 1 2 2 2 2 2 3 2 2 2 3 3 3 3 4 6 7
13 12 12 11 10 10 10 10 10 10 9 8 7 5 4 3 2 2 1 1 0 -0 -0 0 0 0 0 0 0 0 0 1 1 1 1 1 1 2 2 3 3 4 5
12 12 11 10 10 10 9 10 9 9 8 7 5 3 2 1 1 0 -0 -1 -1 -1 -1 -0 -1 -1 -1 -1 -1 -1 -1 -1 -1 -0 -0 0 1 1 1 2 3 3 4
12 11 11 11 10 10 10 9 8 7 6 5 4 2 1 0 -0 -1 -1 -1 -1 -1 -1 -1 -2 -2 -2 -2 -2 -2 -2 -1 -1 -1 -0 0 1 1 1 1 2 3 4
11 11 11 11 11 10 9 8 7 6 5 4 2 1 -0 -1 -1 -1 -2 -2 -2 -2 -2 -2 -2 -2 -2 -2 -2 -2 -2 -1 -1 -1 -1 -1 0 1 2 2 3 2 3
11 11 11 11 10 9 8 7 6 5 4 2 1 0 -1 -1 -2 -2 -2 -2 -2 -2 -2 -2 -2 -2 -2 -2 -2 -2 -1 -1 -1 -1 -1 -1 0 2 2 3 3 3 3
11 11 11 11 9 7 7 6 4 3 2 1 0 -1 -1 -1 -2 -2 -2 -2 -2 -2 -2 -3 -3 -2 -2 -2 -2 -2 -1 -1 -1 -1 -1 -0 1 2 5 4 4 3 3
11 11 10 8 8 6 6 4 3 2 1 -0 -1 -1 -1 -2 -2 -2 -2 -2 -2 -2 -2 -2 -2 -3 -3 -3 -2 -2 -2 -1 -1 -1 -1 -0 -0 0 1 1 2 0 -1
10 9 8 7 6 5 3 2 1 0 -1 -1 -1 -2 -2 -2 -2 -2 -2 -2 -2 -2 -2 -1 -1 -2 -3 -3 -3 -3 -2 -2 -2 -2 -2 -1 0 0 0 -0 -1 -1 -2
9 7 6 5 4 4 3 1 -0 -1 -1 -1 -2 -2 -2 -2 -2 -2 -2 -2 -2 -2 -2 -2 -2 -2 -3 -3 -3 -3 -2 -2 -3 -4 -3 -3 -1 -1 -1 -1 -0 -0 -1
8 5 5 2 1 1 2 -0 -1 -1 -2 -2 -1 -2 -2 -2 -3 -2 -2 -2 -2 -2 -1 -1 -1 -2 -3 -3 -2 -2 -3 -3 -3 -4 -3 -2 -2 -1 -2 -1 -1 -1 -2
7 6 4 1 -1 -0 -0 -1 -0 -1 -2 -2 -1 -2 -2 -2 -2 -2 -2 -2 -2 -2 -2 -2 -2 -2 -3 -3 -3 -3 -2 -3 -3 -3 -3 -3 -2 -2 -2 -1 -1 -2 -2
6 5 4 2 -0 -1 -0 -1 -1 -2 -2 -2 -2 -2 -2 -2 -2 -2 -2 -2 -2 -2 -2 -2 -3 -3 -3 -3 -3 -3 -3 -3 -3 -3 -3 -3 -3 -3 -4 -4 -4 -3 -3
5 4 3 2 0 0 -1 -1 -2 -2 -2 -2 -2 -2 -2 -2 -2 -2 -2 -3 -2 -2 -3 -3 -3 -3 -4 -3 -4 -4 -3 -2 -3 -3 -3 -3 -4 -3 -3 -3 -4 -4 -4

GFSMW_925_temp_210.txt.gz
Temp
27 23 23 22 23 23 22 21 17 17 17 17 17 17 17 17 17 17 17 16 16 16 16 16 17 17 17 16 16 16 15 15 14 12 12 11 12 11 13 12 13 14 15
25 23 23 22 22 21 21 18 17 17 17 17 17 17 17 17 18 17 16 16 16 16 16 16 16 16 16 16 16 16 16 17 16 15 15 15 17 12 12 13 11 13 13
25 25 23 22 22 21 19 18 17 17 17 17 16 16 16 16 16 17 17 15 15 15 14 15 15 14 14 15 15 15 15 16 16 16 15 17 18 19 15 11 12 11 12
27 26 24 21 21 20 19 18 15 16 16 16 16 17 18 18 17 17 16 16 14 14 14 13 13 13 13 14 14 14 14 14 15 16 16 14 15 16 16 16 13 11 10
27 25 24 21 19 18 18 17 16 16 16 16 17 17 17 17 16 16 15 14 14 13 13 13 12 12 12 13 12 12 12 13 13 14 15 15 14 13 14 14 15 12 10
26 25 23 21 19 18 17 17 17 17 16 16 17 17 16 16 16 15 15 14 14 13 13 12 12 11 11 11 11 11 11 11 11 12 13 14 15 16 15 13 14 15 13
25 24 22 21 19 18 17 17 17 16 16 16 15 15 15 14 14 14 14 13 13 13 13 12 11 10 10 10 9 10 10 10 10 11 11 12 13 13 14 14 14 15 14
23 22 22 21 19 18 17 17 17 16 15 15 14 14 13 14 13 13 12 12 12 12 11 10 9 9 9 8 8 8 8 9 9 9 10 11 11 12 12 12 13 13 13
22 22 21 20 19 18 17 17 16 15 15 14 13 13 12 12 12 11 11 11 11 10 10 8 8 8 7 7 7 7 7 7 8 8 8 8 9 10 11 10 11 12 11
22 21 21 19 19 18 16 16 16 15 14 13 13 13 12 11 11 10 10 10 9 8 7 7 6 6 5 5 5 5 6 6 7 7 6 6 6 6 8 8 9 10 11
22 21 20 19 18 17 16 15 15 15 13 13 12 12 11 10 10 9 9 8 7 6 6 5 4 4 4 4 4 4 4 4 6 6 5 5 6 6 6 7 7 8 8
22 21 19 19 18 16 15 14 14 13 13 12 12 11 10 9 9 8 7 6 6 5 5 4 4 4 3 3 2 2 2 2 3 3 3 3 4 4 4 5 5 5 6
20 19 19 19 17 16 15 14 13 13 12 11 11 10 9 8 8 7 6 5 4 4 3 2 2 2 1 1 1 1 1 2 1 2 2 2 2 2 2 3 3 3 3
19 19 19 18 16 15 14 14 13 12 11 10 10 9 8 7 6 5 4 3 2 1 1 1 1 0 0 0 0 -0 -0 -0 -0 -0 0 0 1 1 2 2 3 3 3
19 19 18 17 16 15 13 13 12 11 10 9 9 7 6 5 4 3 2 1 1 0 -0 -0 -1 -0 -1 -1 -1 -1 -1 -1 -0 -0 -0 -0 0 1 1 1 1 2 2
18 18 17 17 16 14 13 13 11 10 9 8 6 6 5 4 3 1 1 -0 0 -0 -1 -1 -1 -1 -1 -1 -2 -2 -1 -1 -1 -0 -0 0 -0 0 0 0 1 1 1
18 18 17 16 14 14 13 12 11 9 9 7 5 4 2 0 -0 -0 -0 -1 -1 -1 -1 -1 -2 -2 -2 -2 -2 -2 -2 -0 -0 -0 -1 -1 -1 -1 -1 -0 0 1 1
19 17 16 14 13 13 13 12 10 9 8 7 6 3 2 -0 -1 -1 -1 -1 -2 -2 -2 -2 -2 -2 -2 -2 -2 -2 -1 -1 -0 -1 -1 -1 -1 0 -0 0 1 1 2
18 15 13 13 13 13 12 11 10 8 8 7 5 3 1 -0 -1 -1 -2 -2 -2 -2 -2 -1 -2 -2 -2 -2 -2 -2 -1 -1 -1 -1 -1 -1 -1 -1 0 1 2 2 2
15 13 13 13 12 12 11 10 9 8 8 5 3 1 0 0 -0 -1 -2 -2 -2 -2 -1 -1 -1 -2 -2 -2 -3 -3 -1 -1 -1 -1 -2 -2 -2 -1 -0 0 1 1 1
12 12 11 13 12 10 9 8 7 7 4 2 1 0 0 -0 -1 -2 -2 -2 -2 -1 -1 -1 -1 -1 -2 -2 -3 -3 -2 -3 -2 -1 -3 -3 -2 -2 -2 -1 -1 -1 -0
9 9 9 10 9 7 8 6 3 2 1 -0 -0 -1 -1 -1 -2 -2 -2 -1 -1 -1 -0 -0 1 -1 -2 -2 -2 -2 -3 -3 -2 -2 -3 -2 -2 -2 -2 -2 -2 -1 -1
9 9 8 5 5 5 4 2 1 1 -1 -1 -1 -1 -2 -2 -2 -2 -1 -1 -1 -1 0 0 0 -1 -2 -2 -2 -2 -2 -2 -2 -3 -3 -2 -1 -1 -2 -1 -1 -2 -2
10 9 6 5 2 4 3 2 0 -0 -1 -1 -1 -1 -2 -2 -2 -2 -1 -1 -1 -1 -0 -0 -1 -2 -2 -3 -2 -2 -2 -2 -2 -2 -2 -2 -2 -2 -3 -2 -2 -2 -2
10 9 9 6 3 2 0 -0 -1 -1 -1 -1 -1 -1 -2 -2 -2 -2 -2 -2 -2 -2 -1 -2 -2 -2 -2 -3 -4 -4 -3 -3 -2 -1 -1 -2 -2 -2 -2 -2 -3 -2 -2
10 10 9 6 3 3 1 -1 -1 -2 -1 -1 -1 -1 -1 -2 -1 -1 -2 -3 -2 -3 -2 -3 -3 -3 -4 -4 -3 -3 -2 -2 -2 -1 -1 -2 -2 -2 -2 -2 -2 -3 -2

GFSMW_925_temp_216.txt.gz
Temp
34 34 32 31 30 31 30 27 24 24 22 21 20 19 19 18 18 18 19 19 19 19 18 18 18 18 18 18 18 18 18 18 18 17 18 17 17 17 17 17 17 17 16
34 33 29 28 28 29 29 28 24 22 22 20 19 19 18 18 19 18 18 18 18 18 18 18 19 19 18 18 17 17 16 16 16 17 16 13 16 18 18 17 16 16 16
32 32 27 27 27 27 27 28 21 20 20 19 18 19 19 19 18 17 17 17 17 18 18 18 17 17 16 16 16 16 15 15 15 16 15 12 13 14 16 17 17 16 16
33 32 28 26 27 27 26 24 20 19 18 18 18 18 18 17 17 17 18 17 17 17 17 16 16 15 15 15 15 15 14 14 13 14 14 15 15 13 13 15 15 16 16
32 31 31 28 27 26 26 24 20 18 17 17 17 17 17 17 17 17 17 17 17 16 16 15 15 14 14 14 13 13 13 12 12 12 13 13 13 13 12 12 13 15 15
32 32 31 28 27 26 24 21 17 16 17 16 17 18 17 17 17 17 17 16 16 16 15 15 14 13 13 12 12 12 11 11 11 11 11 11 11 11 11 11 12 12 13
31 29 29 28 26 24 20 18 17 16 16 16 16 16 18 17 17 17 17 17 16 16 15 14 13 12 12 11 11 10 10 10 10 10 10 10 10 10 10 10 10 10 11
29 28 27 26 24 24 20 19 18 16 15 15 16 17 17 17 17 17 16 16 15 15 14 13 12 11 10 10 10 9 9 9 8 8 8 8 8 9 9 9 8 8 9
29 28 27 25 24 22 20 19 18 17 16 17 16 17 17 17 16 16 15 14 14 13 12 11 10 10 9 9 8 7 7 7 6 6 6 6 6 6 7 7 7 7 7
29 28 27 25 23 22 20 20 19 18 17 16 16 16 16 16 15 14 14 13 12 11 10 10 9 8 8 7 7 6 6 6 5 5 4 4 4 4 4 4 5 5 6
28 27 26 24 23 21 20 20 19 18 17 16 16 15 15 14 13 13 12 11 10 9 9 8 8 7 7 7 6 5 4 3 3 3 3 3 3 3 3 3 3 4 4
29 26 24 22 21 20 19 19 19 18 16 16 15 14 14 13 12 11 11 10 9 8 7 7 6 6 5 4 3 3 2 2 2 2 2 2 2 2 2 2 2 3 3
28 27 24 22 20 19 19 19 18 17 16 15 14 13 12 12 11 10 9 8 7 7 6 5 4 4 3 2 2 2 2 1 1 1 1 1 1 1 1 1 1 1 2
27 27 24 22 20 19 18 18 17 16 15 14 13 12 11 11 10 9 8 7 6 5 4 4 3 2 1 1 1 1 0 -0 -0 -1 -0 -0 0 1 1 1 1 1 1
27 26 23 21 20 19 18 17 17 15 15 13 12 11 11 9 8 7 6 5 4 4 3 3 2 1 1 1 0 -0 -1 -1 -1 -1 -1 -0 0 1 0 0 -0 0 0
27 25 23 21 20 19 18 17 16 15 14 13 11 10 9 8 7 6 5 4 4 3 2 1 0 0 0 -0 -1 -1 -2 -2 -1 -1 -1 -1 -0 -0 -1 -1 -1 -1 -1
26 25 23 22 20 19 18 17 15 14 13 11 10 9 7 6 5 5 4 4 3 1 0 -0 -0 -1 -1 -1 -1 -2 -2 -2 -1 -1 -1 -1 -1 -1 -2 -2 -1 -1 -1
26 25 23 22 21 19 18 17 15 13 12 8 8 7 6 5 4 3 5 4 1 -1 -1 -1 -1 -1 -1 -2 -2 -2 -2 -2 -1 -1 -1 -1 -1 -2 -2 -2 -1 -2 -1
25 23 23 22 21 19 17 16 14 12 9 7 6 4 4 3 1 2 3 1 -1 -1 -1 -1 -1 -1 -1 -1 -2 -2 -2 -2 -2 -1 -1 -1 -2 -2 -2 -2 -2 -2 -1
21 23 23 22 20 18 16 15 13 12 9 7 7 4 3 2 0 2 1 -0 -1 -1 -1 -1 -1 -0 -1 -1 -2 -2 -2 -2 -2 -1 -2 -2 -2 -2 -2 -2 -2 -2 -1
20 21 21 19 19 17 15 13 12 11 10 8 6 5 4 2 2 0 -0 -1 -1 -1 -0 0 1 0 -0 -1 -2 -2 -2 -2 -2 -2 -1 -2 -2 -2 -2 -2 -2 -2 -1
20 19 18 17 16 15 14 12 6 7 6 6 4 3 3 2 0 -0 -1 -1 -1 -0 0 1 1 0 -1 -1 -2 -2 -2 -2 -2 -2 -1 -2 -2 -2 -2 -2 -1 -1 -1
19 17 14 13 13 12 8 4 2 6 5 3 2 2 2 0 -1 -1 -1 -1 -0 -0 1 1 1 -0 -1 -2 -3 -3 -2 -2 -1 -1 -1 -1 -1 -1 -2 -2 -1 -2 -2
12 12 10 9 7 5 4 2 2 3 3 1 1 0 -1 -1 -1 -1 -1 -0 -0 0 0 0 -0 -1 -1 -3 -3 -2 -2 -1 -1 -1 -1 -1 -1 -1 -1 -2 -2 -2 -2
9 8 7 5 3 2 1 2 3 3 1 -0 -1 -1 -1 -1 -1 -1 -1 -1 -1 -0 -0 -1 -1 -2 -2 -3 -3 -2 -2 -1 -1 -1 -1 -1 -1 -1 -2 -2 -2 -2 -2
7 7 5 4 2 1 1 0 1 2 0 -1 -1 -1 -1 -1 -1 -2 -2 -2 -2 -2 -2 -2 -2 -3 -3 -3 -2 -1 -1 -1 -1 -1 -1 -2 -2 -2 -2 -2 -2 -2 -2

GFSMW_925_temp_222.txt.gz
Temp
26 27 28 29 27 24 23 22 21 20 20 20 19 20 20 20 20 19 19 19 19 20 19 19 18 18 18 18 18 18 17 16 16 16 16 17 17 17 18 17 16 16 16
25 24 25 25 25 24 23 21 21 21 21 20 20 19 18 19 19 19 19 19 19 19 19 19 18 18 18 17 17 17 16 16 15 15 13 10 14 16 15 16 16 16 15
24 24 22 24 23 22 22 22 21 22 21 20 19 19 18 18 18 19 19 19 19 20 19 19 18 18 17 17 17 17 17 15 14 14 14 10 10 9 14 14 15 14 14
24 24 22 21 24 23 23 22 22 21 20 20 19 18 18 18 18 18 19 18 18 19 18 18 18 17 17 17 16 16 16 15 13 13 13 12 11 8 7 11 12 12 12
24 24 20 24 25 25 22 22 21 20 20 19 19 18 18 18 18 18 18 18 18 18 17 17 17 17 16 16 15 15 14 13 12 11 11 10 10 10 7 8 8 10 10
23 24 24 23 24 25 22 21 20 19 18 19 18 18 18 18 17 17 17 16 16 16 16 16 16 16 16 15 14 13 12 12 11 10 10 9 9 8 8 7 9 8 8
22 21 22 20 22 21 21 20 19 18 18 18 18 18 18 18 17 17 15 15 15 15 16 16 15 15 14 13 12 12 11 10 10 9 8 8 7 7 6 6 7 7 7
20 20 20 19 22 20 19 18 18 18 17 17 17 18 18 18 17 17 16 16 16 15 15 15 14 14 13 12 11 11 10 9 8 7 7 6 6 5 4 4 3 4 5
22 22 21 18 20 20 18 18 19 17 17 17 18 18 17 17 16 15 15 15 16 15 14 14 14 12 12 11 10 9 8 7 7 6 6 5 4 4 3 3 3 3 3
22 21 20 17 19 18 17 17 17 17 17 17 18 17 17 17 16 15 14 15 14 14 13 13 12 11 10 10 9 8 7 6 5 5 4 3 3 3 2 2 2 2 1
21 20 18 18 18 17 16 16 15 15 15 16 16 15 15 15 15 14 14 14 14 13 12 12 11 10 9 8 7 6 6 5 4 3 2 2 2 2 1 1 1 1 1
20 19 16 16 16 16 15 14 14 14 14 14 14 14 14 14 13 13 14 14 13 12 13 11 10 8 8 7 6 5 4 3 3 2 1 1 1 0 0 1 1 1 1
22 19 16 16 15 15 15 14 14 13 14 14 14 13 13 13 13 13 13 12 12 11 10 9 8 7 6 5 4 4 3 2 2 1 1 -0 -0 -0 0 0 0 0 0
19 18 16 15 15 15 15 14 13 14 13 13 12 12 12 12 11 12 12 11 11 9 8 7 7 6 5 4 3 2 2 1 1 0 -0 -0 -0 -0 -0 -0 -0 -1 -1
19 18 17 15 14 14 14 14 13 12 12 12 11 10 10 11 12 12 11 10 9 8 7 6 5 4 3 3 2 1 1 1 0 -1 -1 -1 -1 -0 -0 -1 -1 -1 -1
19 19 18 15 14 15 14 14 12 12 12 11 10 9 10 11 10 10 9 8 7 6 5 4 4 2 2 1 1 0 1 1 -1 -1 -1 -1 -1 -1 -1 -2 -2 -2 -2
20 20 18 16 15 16 14 13 12 12 11 10 9 9 9 8 9 8 7 6 6 5 4 3 2 1 0 -0 -1 -1 0 -1 -1 -1 -1 -1 -2 -2 -2 -2 -2 -1 -1
19 20 21 18 16 16 15 14 12 11 10 8 7 7 7 8 8 7 6 5 4 3 2 1 1 0 -1 -1 -1 -0 -2 -1 -1 -1 -1 -1 -2 -2 -2 -2 -2 -2 -1
18 19 20 19 17 16 15 13 11 11 9 7 6 6 7 6 6 5 4 3 3 2 1 0 -0 -0 -1 -1 -1 -2 -2 -2 -2 -1 -1 -1 -1 -2 -2 -2 -2 -2 -1
14 16 17 19 16 15 14 12 11 9 8 7 7 6 6 6 4 4 3 3 2 1 -0 -0 -0 -1 -1 -1 -1 -2 -2 -2 -1 -1 -1 -1 -1 -1 -2 -2 -3 -3 -2
14 16 16 15 15 14 13 12 10 9 8 7 5 5 5 5 6 4 3 1 0 -0 -1 -1 -1 -1 -1 -1 -2 -2 -2 -2 -1 -1 -1 -1 -1 -2 -2 -3 -3 -3 -2
13 14 12 13 14 13 12 11 8 8 6 5 3 2 2 2 1 1 -0 -0 -0 -1 -1 -1 -1 -1 -1 -1 -2 -2 -2 -1 -1 -1 -1 -1 -1 -1 -2 -3 -3 -3 -2
9 12 12 11 13 12 12 8 6 5 3 3 1 1 2 1 1 0 -1 -1 -1 -1 -0 -0 -1 -1 -2 -2 -3 -2 -2 -1 -1 -1 -1 -1 -1 -2 -2 -3 -3 -3 -3
7 6 7 6 4 9 9 4 3 2 3 1 0 -1 -1 -1 -1 -0 -0 -1 -0 -0 -1 -1 -1 -2 -2 -2 -2 -2 -1 -1 -1 -1 -1 -1 -1 -2 -2 -3 -3 -3 -3
6 5 4 3 2 2 2 2 2 2 1 -0 -0 -1 -1 -1 -1 -1 -0 0 -0 0 -0 -0 -1 -2 -2 -2 -1 -1 -1 -1 -1 -1 -1 -1 -2 -1 -2 -2 -3 -3 -3
5 4 3 3 2 1 1 1 1 1 0 -0 -0 -0 -0 -0 -1 -1 -1 -1 0 0 1 0 -0 -1 -1 -1 -1 -1 -1 -1 -1 -1 -2 -2 -2 -2 -3 -3 -3 -3 -3

GFSMW_925_temp_228.txt.gz
Temp
21 24 26 28 27 24 23 23 22 22 20 18 18 17 17 17 19 20 21 21 20 19 19 18 19 18 18 18 18 18 17 16 16 16 16 17 18 18 18 18 17 16 16
19 20 23 24 26 27 24 23 23 21 21 19 18 18 17 17 19 19 19 20 20 19 19 19 19 18 18 18 18 18 17 16 16 15 14 13 15 16 16 16 16 15 15
19 20 20 20 24 24 25 25 23 21 21 19 18 18 18 18 17 17 18 19 20 20 19 19 19 18 18 18 18 17 17 16 14 15 15 12 12 9 15 16 15 14 14
19 19 20 20 21 23 22 22 22 20 19 18 18 18 19 18 18 17 17 19 19 19 19 19 19 18 18 18 18 17 17 16 15 13 14 14 13 11 10 13 13 12 12
19 20 21 22 26 24 24 21 20 19 18 18 18 18 18 19 19 18 17 18 19 19 19 19 19 19 18 18 18 17 16 16 16 15 13 12 11 11 9 8 9 10 10
19 19 20 23 23 24 22 21 20 19 18 18 18 18 18 18 18 17 17 17 18 19 19 19 19 18 18 18 17 16 15 16 16 15 14 13 11 8 7 6 6 7 8
18 19 20 19 21 23 23 20 20 19 18 18 18 18 18 18 18 17 17 16 18 18 18 18 18 17 18 17 16 15 15 15 15 14 12 11 10 9 7 6 5 4 5
18 19 19 19 20 22 23 21 20 20 19 18 18 18 18 18 18 17 17 17 18 18 18 17 17 17 17 16 15 15 14 13 12 12 11 9 8 7 6 5 3 3 3
18 18 18 18 20 21 22 23 22 20 19 18 18 18 18 17 17 17 17 17 17 17 17 17 17 16 16 15 14 14 13 12 11 10 9 8 7 6 5 4 3 2 2
19 19 17 17 21 22 23 21 21 21 21 19 18 18 18 17 17 17 16 16 16 17 17 16 16 14 14 13 13 12 12 11 10 9 8 7 6 4 4 3 2 1 1
16 18 18 18 18 19 19 19 18 18 18 18 18 18 17 17 16 16 15 16 16 16 15 15 13 13 13 12 12 11 11 9 8 7 6 5 4 4 3 2 1 1 0
14 14 14 14 15 17 18 17 16 17 17 17 17 17 16 16 15 15 15 15 14 13 13 12 12 12 11 10 11 10 9 8 7 6 5 4 3 3 2 1 1 0 1
14 14 14 14 14 15 15 15 16 17 17 17 16 16 15 14 14 14 14 13 13 12 12 12 11 10 9 9 10 9 8 7 6 5 4 4 3 2 1 0 0 0 0
13 13 14 14 13 15 15 14 15 17 17 16 15 13 12 13 13 13 12 12 12 11 11 11 11 9 8 9 9 7 7 6 4 4 4 3 2 1 0 -0 -0 -0 -1
14 14 14 14 14 14 15 13 14 15 15 14 12 12 12 12 12 11 11 11 11 10 11 10 10 9 8 8 8 7 6 5 4 3 3 2 1 -0 -1 -1 -1 -1 -2
13 14 15 14 14 13 14 14 12 13 13 12 11 11 11 11 10 9 10 9 9 9 10 10 9 7 7 6 6 6 5 4 3 3 2 2 0 -0 -2 -1 -2 -2 -2
13 14 14 14 14 14 15 14 13 11 11 11 11 10 9 9 9 9 8 7 8 9 8 8 8 6 5 4 4 3 4 3 3 2 1 1 -0 -2 -2 -2 -2 -2 -2
13 13 13 13 14 14 14 15 13 11 10 10 9 9 8 8 7 7 6 6 6 7 7 6 6 5 4 3 2 3 3 2 1 1 1 -0 -1 -1 -2 -2 -2 -2 -2
11 11 13 12 13 13 13 14 11 10 9 8 8 8 8 6 6 5 5 5 5 5 4 5 4 3 1 1 2 4 2 1 0 -0 -1 -1 -1 -1 -1 -2 -3 -3 -3
9 11 13 13 12 12 13 13 10 9 8 8 8 8 6 5 4 4 3 3 4 3 2 2 3 2 1 1 1 2 1 0 -1 -1 -1 -1 -1 -1 -2 -2 -3 -3 -3
9 11 11 11 11 11 11 11 10 9 10 9 8 7 6 4 3 2 2 2 1 -0 -1 -0 1 1 1 -1 -0 1 1 0 -1 -1 -1 -1 -1 -2 -2 -3 -3 -3 -3
10 10 9 10 11 10 10 10 10 10 10 8 7 5 5 3 2 1 -0 -1 -1 -2 -2 -2 -2 -1 -0 -0 -1 -1 -1 -1 -1 -1 -1 -1 -2 -2 -2 -3 -3 -3 -3
9 10 10 10 10 9 8 8 10 9 8 6 4 3 3 1 1 0 -1 -1 -1 -1 -2 -2 -2 -2 -1 -1 -1 -1 -2 -1 -1 -1 -1 -2 -2 -2 -3 -3 -3 -3 -3
8 9 9 7 7 7 5 7 8 8 5 3 2 1 1 0 0 -0 -0 -1 -1 -1 -1 -1 -2 -2 -2 -2 -2 -2 -2 -1 -1 -1 -1 -2 -2 -2 -3 -3 -3 -3 -3
8 8 7 6 5 4 3 4 5 5 3 2 1 1 0 -0 -0 -0 -1 -1 -0 0 -0 -1 -1 -2 -2 -2 -1 -1 -1 -1 -1 -1 -2 -2 -2 -2 -3 -3 -3 -3 -4
8 7 5 4 3 3 2 2 3 3 1 0 0 -0 -0 -0 -0 -1 -1 1 2 3 2 2 3 1 1 -1 -1 -1 -1 -1 -1 -1 -2 -2 -2 -3 -3 -3 -3 -3 -3

GFSMW_925_temp_234.txt.gz
Temp
33 32 30 29 29 28 28 27 26 24 23 23 23 23 23 22 21 21 21 20 20 20 20 21 20 19 20 21 20 20 19 19 19 19 19 20 19 18 19 19 18 18 17
32 32 31 29 27 27 27 26 26 25 23 24 24 24 24 24 23 22 21 20 20 20 20 20 21 20 20 20 20 20 18 18 18 19 20 22 21 19 18 18 18 17 17
31 31 31 30 29 28 26 26 27 26 24 23 24 24 24 24 23 22 21 21 20 20 20 20 21 20 20 21 20 20 19 18 15 17 20 20 22 21 18 17 17 16 16
30 30 30 30 29 28 28 26 26 26 26 24 24 24 24 25 24 23 23 22 20 20 20 20 20 20 20 20 20 19 20 20 18 14 16 17 18 20 19 17 16 16 15
28 29 29 29 30 30 29 26 26 26 26 25 23 23 23 24 24 22 22 21 20 20 20 19 19 19 19 20 20 18 18 17 18 17 15 14 14 14 16 17 20 16 16
26 27 28 29 29 29 28 27 25 26 25 25 23 22 23 23 24 24 22 22 21 19 19 19 19 19 19 19 19 18 17 18 18 17 16 16 16 16 16 18 19 18 17
25 26 26 27 27 27 26 25 25 26 26 24 24 22 22 22 23 23 22 22 21 18 19 19 19 19 19 19 18 18 18 17 17 16 16 15 15 16 16 16 18 18 16
26 26 26 26 26 25 25 25 25 26 26 24 24 23 23 22 22 22 23 22 21 18 18 18 19 19 18 18 18 18 17 16 15 14 14 14 14 14 15 16 16 17 16
22 23 23 23 23 24 24 23 24 25 25 24 23 23 22 22 21 22 22 21 20 19 17 17 18 18 18 17 16 15 16 15 14 14 12 13 11 11 12 13 13 14 16
21 21 22 21 21 21 21 21 21 23 24 24 23 22 22 22 21 20 20 20 19 18 18 17 17 17 17 15 15 14 13 14 12 11 11 11 10 10 11 10 11 11 12
20 20 20 20 20 20 20 20 21 21 22 22 23 23 22 22 21 20 19 19 18 18 18 17 17 17 16 15 14 13 12 12 10 10 10 9 9 9 10 9 9 10 9
20 20 20 20 19 19 19 20 20 20 20 20 21 21 22 21 21 20 19 18 17 17 17 16 16 16 15 13 12 12 11 10 10 10 8 8 8 8 8 8 9 9 8
20 20 20 20 19 19 19 19 19 19 19 20 20 20 20 20 20 19 18 17 16 17 16 15 15 14 12 11 11 12 10 10 10 9 8 8 7 8 8 8 8 8 7
19 20 20 20 19 19 18 18 18 18 18 19 19 20 20 20 18 17 16 16 16 15 15 14 13 12 10 9 11 12 11 10 9 9 6 8 7 8 8 7 7 7 6
18 19 19 19 19 18 18 18 17 17 17 17 17 15 16 16 15 16 15 15 14 13 13 12 11 10 10 9 11 10 10 8 7 6 7 7 6 6 7 6 6 5 5
18 18 18 18 18 17 17 16 17 16 16 16 16 15 13 14 14 14 13 13 12 11 11 10 10 8 8 9 12 11 7 7 7 5 4 3 4 4 4 4 3 3 4
17 17 17 18 17 17 16 16 16 16 16 15 15 14 13 12 12 12 11 10 10 10 9 8 8 8 8 10 10 10 8 7 5 4 4 3 2 1 1 0 -0 -1 -1
16 16 17 17 16 16 16 16 16 16 16 15 15 13 12 10 11 10 10 9 9 8 8 8 8 7 6 8 9 8 7 6 5 4 3 3 2 2 2 3 2 1 0
16 15 15 15 15 16 15 15 16 16 16 16 15 14 12 10 9 9 9 8 7 7 7 7 6 5 4 7 7 8 6 4 2 3 2 3 2 1 1 1 1 -0 -1
14 14 14 14 14 15 15 15 15 15 15 15 15 14 13 10 8 8 7 7 7 6 5 5 5 5 5 5 6 7 4 1 1 0 0 1 1 -0 -0 1 -0 -2 -2
14 14 14 14 14 14 14 14 14 15 14 14 13 13 12 11 8 7 6 5 4 4 3 3 3 2 4 4 5 5 3 1 0 0 0 -0 -0 -1 -1 -1 -1 -1 -2
14 14 14 14 13 13 13 14 14 13 13 12 12 12 12 10 7 6 4 4 3 2 2 2 1 1 1 3 3 3 2 2 1 -0 -0 -1 -1 -1 -2 -2 -2 -2 -2
14 14 14 13 13 13 13 13 13 12 11 9 9 9 10 7 6 4 3 2 2 2 1 1 0 -0 -1 0 1 2 2 1 1 -0 -1 -1 -1 -2 -2 -2 -2 -2 -2
14 14 14 14 13 13 12 12 12 12 10 7 6 6 7 5 4 3 2 2 2 1 1 1 0 -0 -1 -1 -1 -0 -0 -0 -0 -1 -1 -2 -2 -2 -2 -3 -2 -2 -2
13 13 13 13 13 13 12 12 11 10 8 8 6 5 4 3 2 2 2 2 2 2 2 1 0 -0 -1 -1 -2 -1 -1 -1 -1 -1 -2 -2 -1 -1 -2 -2 -2 -2 -2
13 13 13 13 13 12 12 12 11 11 8 5 3 3 2 1 1 1 1 1 1 2 2 1 -0 -0 -1 1 1 -1 -1 -1 -1 -1 -1 -1 -1 -1 -1 -2 -2 -2 -2

GFSMW_925_temp_237.txt.gz
Temp
36 35 34 33 32 32 32 30 28 26 25 24 24 25 25 25 24 24 24 23 22 21 21 22 22 22 22 22 22 22 22 22 21 20 20 21 20 20 21 22 21 21 20
34 35 35 33 31 32 32 31 29 27 25 25 25 26 26 26 25 24 24 23 22 21 21 22 23 22 22 22 22 22 22 21 21 21 22 22 22 22 21 21 21 20 19
33 34 34 33 31 29 29 30 30 28 26 26 26 26 26 26 26 25 24 23 22 22 21 21 22 23 22 22 21 21 21 20 19 20 22 23 23 22 20 19 20 18 18
32 33 33 34 32 31 29 29 29 29 28 26 26 27 27 27 27 26 25 24 22 22 22 22 21 22 22 22 21 21 21 20 20 18 19 20 19 23 21 20 19 18 17
31 32 32 32 32 32 31 29 28 28 29 28 26 26 26 27 28 27 26 25 24 22 22 21 21 21 22 21 22 21 20 20 21 18 19 19 19 18 20 20 18 17 18
31 31 30 30 31 31 31 31 29 29 28 28 27 26 26 25 26 27 26 25 24 23 22 21 21 21 21 21 21 21 20 20 20 20 20 19 18 17 18 18 19 20 19
30 28 28 29 29 30 30 30 29 29 28 28 27 26 25 25 25 26 26 24 24 23 21 21 21 21 21 21 21 21 20 19 19 20 20 18 18 17 17 17 18 19 19
27 27 28 28 29 28 28 29 28 28 28 28 27 26 26 24 24 25 25 25 24 23 22 21 21 20 20 20 20 20 19 19 19 19 19 17 16 17 17 17 17 18 18
26 26 25 25 24 25 26 26 26 26 27 28 28 26 25 24 24 24 24 25 24 23 22 21 20 20 20 20 20 20 19 18 18 17 16 15 15 15 15 16 16 16 18
23 23 24 23 23 23 23 23 23 24 26 26 27 26 25 25 24 24 23 23 24 23 22 19 20 20 20 20 20 19 18 17 16 14 14 14 14 14 13 13 14 14 15
22 22 22 22 22 22 22 22 22 23 24 24 24 25 25 24 24 23 23 22 22 22 20 18 18 19 19 19 18 16 16 15 13 12 13 13 12 12 12 11 12 13 13
22 22 22 22 21 21 21 21 21 22 22 23 23 23 23 23 23 23 22 21 21 20 19 19 18 18 18 18 16 16 14 12 12 12 12 11 11 11 11 10 11 11 11
21 22 22 21 21 21 20 20 20 20 20 21 22 22 21 22 22 22 22 21 20 19 18 18 17 17 17 16 15 15 13 12 12 12 11 10 10 10 10 10 11 10 11
20 21 21 21 20 20 20 20 20 19 19 19 20 21 21 21 21 21 21 20 19 17 17 17 17 16 16 15 14 12 11 10 10 11 10 10 10 10 9 10 10 10 10
19 19 20 20 20 20 19 19 19 18 18 18 18 19 17 16 17 18 17 19 18 17 17 16 16 15 14 13 12 10 9 10 10 10 10 9 9 9 10 10 9 9 9
19 19 19 20 20 19 19 18 18 18 18 18 17 17 17 15 14 15 15 15 16 15 15 14 14 13 12 11 10 8 9 9 9 8 8 8 8 9 9 8 8 7 8
19 19 19 19 19 19 18 18 18 18 18 17 17 16 16 15 12 12 13 13 13 13 13 12 12 11 10 9 8 9 9 8 9 8 7 7 6 6 6 6 6 5 5
18 18 19 18 18 18 17 17 18 18 18 18 18 17 16 15 12 11 11 11 11 11 11 10 10 9 9 8 8 8 8 8 7 7 7 5 4 4 4 3 3 3 2
17 17 17 17 16 16 16 17 17 17 17 18 18 17 17 16 13 10 10 10 10 9 9 9 8 7 7 6 7 9 7 6 6 5 5 5 4 4 4 5 4 3 2
15 15 16 16 15 15 16 16 16 16 16 17 17 16 16 16 14 10 9 9 8 8 8 7 7 7 5 6 6 8 5 4 4 4 4 4 3 3 3 2 1 1 -1
15 15 15 15 15 15 15 15 16 16 16 16 16 15 15 15 15 10 8 7 7 6 6 6 5 5 5 4 6 8 6 4 2 2 2 3 3 2 2 2 1 -0 -1
16 15 15 15 15 15 15 15 15 16 15 15 15 14 14 13 12 9 7 6 5 4 3 3 3 3 2 3 4 5 7 4 3 1 1 1 1 -0 -0 -1 -1 -1 -1
16 15 15 15 15 15 15 15 15 15 14 14 13 12 12 10 9 7 6 4 4 3 3 3 2 1 1 2 2 3 4 3 2 1 0 0 -0 -1 -2 -2 -2 -2 -1
16 15 15 15 15 15 15 15 14 14 14 13 13 10 8 6 7 6 5 3 3 3 2 2 2 0 0 0 1 2 2 1 0 -0 -1 -1 -2 -2 -2 -2 -2 -1 -1
14 15 15 15 15 15 14 14 14 14 13 13 12 9 7 5 5 5 5 3 3 3 2 2 1 0 0 -0 0 0 0 -0 -1 -1 -2 -2 -2 -2 -2 -2 -1 -2 -2
13 14 14 15 14 14 14 14 14 14 13 12 10 7 5 4 4 3 2 2 3 3 2 2 1 0 -0 -1 -0 0 1 -0 -2 -2 -1 -1 -1 -1 -1 -1 -1 -1 -2

GFSMW_925_temp_240.txt.gz
Temp
33 34 34 34 34 33 32 28 26 26 24 24 23 24 24 24 24 24 25 24 23 22 22 22 22 23 23 23 22 22 22 23 22 22 21 21 20 20 20 20 20 20 20
33 34 34 34 33 33 32 28 26 26 25 24 24 24 24 24 24 24 25 24 23 22 21 21 22 22 22 22 22 22 22 22 22 21 20 18 20 20 20 21 21 20 20
31 32 32 33 32 32 30 30 27 25 25 25 24 24 25 25 25 24 24 24 24 22 21 21 21 22 22 22 22 22 22 21 21 21 21 19 18 20 20 21 20 20 20
30 30 31 31 31 30 29 28 28 26 25 25 25 25 25 25 25 25 24 24 23 23 21 21 21 22 22 22 21 21 21 21 20 20 20 20 20 18 16 19 19 19 19
28 29 30 32 31 30 30 29 28 27 26 25 26 25 26 26 26 26 25 24 23 22 22 21 21 21 22 21 22 21 21 21 20 19 19 19 19 19 18 15 17 18 18
28 29 30 31 31 30 28 29 29 27 27 26 25 26 26 26 26 26 26 25 24 22 22 22 21 21 21 22 21 21 21 21 20 19 19 19 19 18 17 16 16 16 18
29 29 30 29 29 29 29 29 28 28 28 28 28 25 25 26 26 26 26 26 25 24 22 22 21 21 21 21 21 21 20 20 20 20 19 19 19 19 18 18 17 16 18
26 26 27 27 26 25 25 26 26 28 28 28 28 28 26 25 25 25 25 26 25 24 23 22 21 21 21 21 21 20 20 20 20 19 19 19 19 19 18 18 17 15 16
26 24 23 22 23 23 24 23 23 24 25 27 28 27 27 26 25 25 25 25 25 24 23 22 21 21 21 20 21 21 20 20 19 19 20 19 18 18 18 17 17 17 13
23 23 23 21 22 22 22 22 22 23 24 24 25 25 26 26 25 24 24 24 24 24 23 23 21 20 20 20 20 20 20 20 19 19 19 18 17 17 16 16 17 17 16
22 22 21 22 22 21 21 21 21 22 22 23 24 24 24 25 25 24 24 24 23 24 23 23 21 20 20 20 20 20 20 19 18 17 17 16 16 15 15 15 15 15 15
21 22 21 21 21 21 21 21 21 20 20 21 21 22 23 23 23 24 23 23 23 23 23 22 21 20 20 20 20 19 19 19 16 16 16 15 14 14 14 13 13 13 13
20 21 21 21 20 20 20 19 20 19 19 19 19 20 21 21 21 22 22 23 23 22 22 21 19 19 20 20 19 19 18 16 16 16 13 13 13 12 12 12 12 12 12
20 20 20 20 20 20 20 19 19 19 18 18 18 18 19 18 17 17 20 21 22 21 21 20 19 19 19 18 18 16 15 15 14 13 12 12 13 12 11 11 11 11 11
20 20 19 19 19 19 20 19 19 18 18 18 18 17 17 17 16 15 16 18 19 20 21 20 19 19 19 18 17 15 14 13 12 11 10 11 11 12 12 11 10 10 10
20 20 20 20 20 19 19 19 19 18 18 17 17 17 17 16 15 14 14 15 15 17 18 18 18 17 17 17 16 16 13 11 11 10 9 10 10 10 10 10 10 10 9
19 19 19 19 19 19 19 18 18 18 18 18 17 18 17 16 15 14 13 12 13 14 15 16 16 16 16 16 15 15 12 11 10 8 9 9 9 9 9 9 9 9 8
16 17 17 18 18 18 17 17 17 17 17 17 17 18 17 17 16 15 14 11 11 12 12 13 13 13 14 14 13 11 10 9 8 8 8 7 7 8 9 8 7 7 6
16 16 16 16 16 17 16 16 16 16 17 17 17 17 17 17 16 15 14 12 10 10 11 11 11 11 11 10 9 8 8 7 7 7 7 8 7 7 7 7 5 3 3
15 16 15 15 15 15 16 16 15 15 15 16 16 16 16 16 15 15 13 11 9 9 9 9 9 10 10 8 8 7 6 5 5 5 6 7 7 6 5 5 4 2 1
15 15 15 15 15 15 15 15 15 15 15 15 16 16 16 15 15 14 12 10 8 8 8 8 8 8 8 7 7 5 5 5 4 4 4 4 4 4 4 5 4 4 1
15 15 15 15 15 15 15 15 15 15 15 15 15 15 15 15 14 12 10 7 7 6 6 5 5 5 5 6 4 5 6 4 3 2 3 3 3 3 2 2 2 1 0
14 14 15 15 15 15 15 15 15 15 15 15 14 14 14 13 12 10 9 6 6 5 4 3 3 3 3 3 3 3 4 3 3 3 3 2 0 0 0 0 -0 -1 -1
13 13 14 14 14 14 15 15 15 15 15 14 14 13 13 12 12 9 6 6 5 4 3 3 2 2 2 2 2 2 2 3 3 2 1 -0 -1 -1 -1 -2 -1 -1 -1
11 11 11 12 12 13 14 15 15 15 14 14 14 13 12 11 9 8 7 5 5 5 4 3 3 1 1 2 2 2 0 -0 0 -1 -2 -2 -2 -2 -2 -2 -1 -1 -1
8 8 8 9 10 10 10 11 11 12 13 12 12 12 11 9 6 5 4 4 4 4 4 4 3 2 2 1 1 1 0 0 -1 -2 -2 -2 -2 -2 -1 -2 -2 -2 -2

GFSMW_925_temp_243.txt.gz
Temp
29 30 32 32 32 29 26 25 24 22 22 22 22 22 22 23 23 23 23 23 23 22 22 22 22 22 22 23 23 22 22 22 22 22 21 22 21 21 20 21 20 20 20
27 27 31 31 31 30 27 25 24 23 22 22 22 23 22 23 23 24 23 24 23 22 22 22 22 22 22 23 23 22 22 22 22 21 19 17 19 20 20 20 20 20 20
26 26 28 29 31 29 27 25 25 23 23 23 22 22 23 23 23 23 24 23 23 23 22 22 21 21 22 22 22 22 22 21 22 21 20 16 16 17 19 20 20 20 20
27 25 28 27 27 29 26 25 25 24 23 23 22 22 23 22 23 22 23 23 23 23 22 22 22 22 22 21 22 22 22 21 20 20 21 22 20 16 16 18 19 19 19
25 25 26 28 30 25 26 25 25 24 24 23 23 22 23 23 23 23 23 23 23 23 23 22 21 21 21 21 21 21 21 21 20 20 20 20 20 19 15 13 16 18 19
23 26 25 27 28 27 24 25 25 24 24 23 23 23 23 23 23 24 23 22 23 23 23 22 21 21 20 21 21 21 21 20 20 19 20 19 19 17 16 13 13 15 17
22 23 23 21 21 22 22 24 24 24 23 24 23 23 24 24 24 24 24 23 22 22 22 22 21 20 21 20 20 20 20 20 20 19 19 19 19 20 19 18 15 13 16
20 18 18 18 19 20 22 22 23 24 24 22 22 23 24 23 25 25 24 24 23 22 22 22 21 20 20 20 20 20 20 20 20 19 19 18 18 19 19 19 17 13 14
20 18 17 17 18 20 21 22 22 22 22 23 24 24 23 24 25 24 25 25 24 23 22 22 21 20 20 20 20 20 20 19 19 19 18 18 18 18 19 20 19 17 13
19 19 17 17 19 20 20 20 21 20 20 21 21 22 24 23 24 25 25 25 25 25 24 23 22 21 20 20 20 19 19 19 19 18 18 18 18 18 19 19 19 18 15
17 17 17 18 19 20 20 19 19 19 19 19 19 20 21 23 23 23 24 24 24 24 24 23 23 22 20 20 20 19 19 19 18 18 18 18 18 18 18 17 16 16 16
15 16 16 17 18 19 19 19 19 19 19 18 19 18 18 19 20 21 21 22 24 24 23 23 23 22 21 20 20 19 19 18 18 18 18 18 18 17 17 17 15 15 15
16 16 15 15 17 19 19 19 19 18 18 18 18 18 18 17 17 18 18 20 21 22 23 23 22 22 22 20 20 20 19 19 18 19 18 17 16 15 15 14 13 13 14
18 17 16 15 16 18 18 19 19 18 18 18 18 17 17 17 16 16 17 17 18 20 21 22 22 22 21 21 20 20 20 19 18 18 17 16 16 13 12 11 12 13 13
18 18 18 17 16 18 18 19 18 18 18 17 18 17 17 17 17 17 16 16 16 17 17 19 21 21 21 21 20 19 18 18 16 15 15 14 13 13 12 12 11 12 11
15 16 15 17 16 17 18 18 17 17 17 17 17 17 17 17 16 16 15 15 15 16 15 16 17 19 19 19 19 19 17 16 15 12 12 12 11 11 11 11 10 11 11
14 14 14 13 14 15 16 16 16 16 16 16 16 17 17 17 17 15 15 15 14 13 13 14 15 15 17 18 18 18 17 16 14 13 11 10 10 10 10 9 10 10 11
13 13 13 13 14 15 15 15 16 16 16 15 15 16 17 17 16 16 15 14 14 13 12 11 12 13 14 15 16 16 16 14 13 12 12 10 9 9 9 9 9 9 9
12 13 14 15 15 15 15 15 15 15 15 15 15 15 15 16 16 15 15 14 14 13 12 10 10 11 12 12 13 12 13 12 11 10 9 9 8 8 8 9 8 7 6
13 13 14 14 14 15 15 14 14 14 14 14 15 15 15 15 15 15 15 14 13 12 11 8 9 9 10 10 11 10 10 8 7 7 6 6 6 7 7 8 7 3 2
12 13 13 13 13 14 14 13 14 13 14 14 15 15 15 15 15 15 13 12 12 11 9 7 8 8 8 9 9 8 8 8 5 4 4 4 6 5 5 6 5 3 1
11 11 11 11 12 12 13 13 12 13 14 15 14 14 15 15 14 13 12 11 10 8 6 6 7 7 7 7 7 7 7 6 5 3 3 3 3 3 4 4 4 3 1
10 11 11 11 11 11 11 11 12 13 13 14 14 14 14 14 14 13 12 10 9 6 6 5 5 5 5 5 5 5 4 4 4 2 2 2 3 4 3 2 1 1 0
9 9 9 8 8 8 8 9 10 10 11 11 13 14 13 13 12 12 11 10 8 5 5 4 3 4 3 4 3 3 3 2 2 3 2 3 3 3 2 0 -0 0 0
8 7 7 7 7 7 7 8 7 8 8 8 9 9 10 12 12 10 11 11 11 10 5 4 5 3 2 3 3 3 2 2 3 2 1 0 -0 -1 -0 -1 -1 -1 -1
5 5 5 5 5 6 6 5 6 6 6 6 6 7 8 7 5 4 4 5 5 5 5 5 5 5 4 3 2 2 1 2 2 -0 -1 -2 -2 -1 -2 -2 -2 -1 -1

GFSMW_925_temp_246.txt.gz
Temp
24 27 28 28 28 26 23 22 21 21 20 20 20 20 20 20 20 21 22 22 22 22 21 21 21 21 21 21 21 22 21 21 21 21 20 21 21 21 21 21 21 20 20
24 25 28 29 27 27 24 23 22 21 21 21 21 21 21 20 20 21 21 22 22 22 21 21 21 22 21 21 21 21 20 21 21 20 18 17 19 20 20 20 20 20 20
26 23 24 27 29 26 26 23 23 22 21 21 21 21 20 21 21 21 22 21 22 22 22 22 21 21 22 21 22 21 21 20 21 21 20 16 16 17 20 20 20 20 20
25 24 24 24 27 27 27 25 23 22 22 21 21 21 21 21 22 22 21 21 21 22 22 22 21 21 21 21 22 22 21 21 19 20 21 21 20 16 16 17 18 19 19
24 21 22 25 28 28 27 25 24 23 22 22 21 21 21 22 22 22 22 22 22 22 22 22 21 21 21 21 20 20 21 20 21 20 20 19 19 19 15 14 15 17 18
23 22 22 23 21 24 25 24 24 23 22 22 21 21 21 22 22 22 21 21 22 22 22 21 21 21 21 21 20 20 20 20 20 20 20 20 19 18 16 12 12 14 17
20 18 17 17 18 18 22 22 23 22 22 21 21 21 21 22 22 21 21 21 21 21 22 22 21 20 21 20 20 19 19 20 19 19 19 19 19 20 19 18 14 13 15
17 17 17 16 17 18 18 21 22 21 22 21 21 21 21 22 22 22 22 21 21 21 22 21 21 21 20 20 20 20 20 19 19 19 19 19 18 19 19 18 17 12 12
17 17 16 16 17 17 18 18 18 19 20 20 20 21 21 20 21 21 22 22 22 22 21 22 21 21 20 20 19 19 19 19 19 18 18 18 18 18 18 18 19 17 12
16 16 16 16 17 17 17 18 18 17 18 19 19 19 20 20 21 21 22 22 23 22 22 22 21 21 20 20 19 19 18 18 18 18 18 18 18 18 18 18 18 18 17
15 15 14 16 17 18 18 18 18 18 18 18 18 18 18 18 19 19 19 20 20 21 23 24 23 22 20 20 19 19 18 18 18 18 18 17 17 17 17 17 17 16 16
14 14 15 16 16 17 18 18 18 18 18 18 18 18 18 18 17 18 18 18 19 19 20 21 22 23 22 20 19 18 18 18 18 17 17 17 17 17 16 16 16 15 16
15 14 14 14 15 16 17 17 17 18 18 18 18 17 17 17 17 17 17 18 18 18 19 19 18 21 22 22 19 19 18 18 18 17 17 17 17 16 15 15 14 14 14
13 15 14 13 15 16 16 17 17 17 17 17 17 17 17 17 17 17 17 17 17 17 17 18 17 17 18 21 21 20 18 18 18 18 18 17 17 16 15 14 13 12 11
13 13 13 12 13 13 14 15 16 16 17 17 17 16 17 17 17 16 16 16 16 16 16 16 16 16 17 17 20 20 19 19 18 18 17 17 17 17 17 14 12 11 10
13 13 13 14 13 13 14 15 15 15 15 16 16 16 16 16 16 16 15 16 16 16 16 15 14 15 15 16 17 17 18 18 19 18 17 16 16 15 13 13 12 14 11
13 13 12 13 13 14 14 14 15 15 15 15 16 16 16 15 15 15 15 15 15 15 15 15 14 12 13 14 15 16 16 17 17 18 16 15 13 13 11 10 11 11 10
12 12 11 12 13 13 14 14 14 14 14 15 15 15 15 15 15 15 15 15 14 15 15 14 13 12 12 12 13 13 14 14 15 15 15 14 13 12 11 10 8 8 8
11 11 11 12 12 13 13 13 13 13 13 13 14 14 15 15 15 15 15 14 14 14 14 13 12 11 12 11 11 11 12 12 12 13 13 12 11 11 10 8 6 5 5
11 11 11 11 11 11 12 12 11 12 12 13 13 14 15 14 14 15 15 14 13 12 12 12 11 10 9 9 10 10 10 10 10 10 10 9 9 8 6 6 5 1 1
11 11 11 10 10 11 11 10 10 10 11 11 12 13 13 13 14 14 14 14 12 11 10 11 11 10 8 7 8 8 8 8 8 8 7 6 6 6 5 6 4 4 2
9 10 9 9 9 9 9 8 8 8 8 9 10 10 11 11 12 14 14 13 11 10 9 10 11 11 9 7 7 7 6 6 7 6 5 5 4 4 4 5 4 3 3
8 8 8 8 8 8 8 7 7 8 8 8 8 9 9 9 10 11 12 10 9 8 9 8 7 10 8 7 5 6 5 5 6 5 4 4 3 3 4 4 3 3 3
7 6 6 5 5 6 6 6 6 6 6 6 6 6 7 7 9 7 8 6 6 6 6 4 3 6 6 6 5 4 4 4 4 3 2 3 2 3 3 3 3 2 1
4 4 4 4 4 4 4 4 5 5 5 5 5 4 5 5 6 7 3 4 5 5 8 10 8 4 3 6 6 4 3 3 3 2 1 1 1 -0 -1 -1 0 1 0
3 4 3 3 3 3 3 3 4 4 4 4 3 3 3 3 3 5 5 5 4 4 6 6 8 8 6 5 5 3 3 3 2 1 1 0 -0 -1 -1 -1 -1 -1 -1